| time (UTC) | temp F | wind direction | speed MPH | gust MPH | rain 1hr in | rain 24hr in | rain mn in | humidity % | barometer mb |
| 20260504224600 | 51 | 79 | 0.0 | 1.0 | 0.12 | 0.26 | 0.26 | 93 | 1017.0 |
| 20260504223100 | 51 | 133 | 0.0 | 0.0 | 0.11 | 0.22 | 0.22 | 92 | 1017.1 |
| 20260504221559 | 51 | 115 | 0.0 | 1.0 | 0.11 | 0.18 | 0.18 | 92 | 1017.4 |
| 20260504214608 | 51 | 125 | 0.0 | 2.0 | 0.10 | 0.14 | 0.14 | 91 | 1017.3 |
| 20260504213100 | 52 | 72 | 0.0 | 1.0 | 0.08 | 0.11 | 0.11 | 91 | 1017.3 |
| 20260504211600 | 52 | 60 | 0.0 | 3.0 | 0.06 | 0.07 | 0.07 | 91 | 1017.7 |
| 20260504210100 | 52 | 168 | 0.0 | 1.0 | 0.04 | 0.05 | 0.05 | 89 | 1017.5 |
| 20260504204617 | 52 | 163 | 0.0 | 1.0 | 0.04 | 0.04 | 0.04 | 89 | 1017.4 |
| 20260504203105 | 52 | 31 | 0.0 | 1.0 | 0.03 | 0.03 | 0.03 | 86 | 1017.3 |
| 20260504201600 | 53 | 25 | 0.0 | 2.0 | 0.01 | 0.01 | 0.01 | 84 | 1017.2 |
| 20260504200104 | 53 | 37 | 0.0 | 2.0 | 0.01 | 0.01 | 0.01 | 84 | 1017.3 |
| 20260504200002 | 53 | 37 | 0.0 | 2.0 | 0.01 | 0.01 | 0.01 | 83 | 1017.3 |
| 20260504194501 | 53 | 32 | 0.0 | 2.0 | 0.00 | 0.00 | 0.00 | 80 | 1017.2 |
| 20260504193002 | 53 | 10 | 0.0 | 1.0 | 0.00 | 0.00 | 0.00 | 80 | 1017.3 |
| 20260504191501 | 53 | 48 | 0.0 | 1.0 | 0.00 | 0.00 | 0.00 | 81 | 1017.7 |
| 20260504190002 | 54 | 114 | 0.0 | 2.0 | 0.00 | 0.00 | 0.00 | 81 | 1017.7 |
| 20260504184559 | 54 | 188 | 0.0 | 3.0 | 0.00 | 0.00 | 0.00 | 83 | 1017.5 |
| 20260504183100 | 55 | 102 | 1.0 | 3.0 | 0.00 | 0.00 | 0.00 | 81 | 1017.4 |
| 20260504181603 | 55 | 166 | 1.0 | 3.0 | 0.00 | 0.00 | 0.00 | 78 | 1017.3 |
| 20260504180100 | 54 | 121 | 0.0 | 4.0 | 0.00 | 0.00 | 0.00 | 75 | 1017.2 |
| 20260504174600 | 55 | 126 | 0.0 | 3.0 | 0.00 | 0.00 | 0.00 | 76 | 1017.1 |
| 20260504173103 | 55 | 41 | 0.0 | 3.0 | 0.00 | 0.00 | 0.00 | 76 | 1017.1 |
| 20260504171559 | 54 | 19 | 0.0 | 3.0 | 0.00 | 0.00 | 0.00 | 77 | 1016.9 |
| 20260504160117 | 53 | 73 | 1.0 | 4.0 | 0.00 | 0.00 | 0.00 | 79 | 1016.8 |
| 20260504120106 | 50 | 6 | 0.0 | 2.0 | 0.00 | 0.00 | 0.00 | 86 | 1015.8 |
| 20260504100104 | 50 | 40 | 0.0 | 0.0 | 0.00 | 0.00 | 0.00 | 86 | 1015.7 |
| 20260504090123 | 51 | 33 | 0.0 | 1.0 | 0.00 | 0.00 | 0.00 | 85 | 1015.7 |
| 20260504081600 | 51 | 38 | 0.0 | 1.0 | 0.00 | 0.00 | 0.00 | 84 | 1015.9 |
| 20260504050002 | 56 | 177 | 0.0 | 0.0 | 0.00 | 0.00 | 0.00 | 74 | 1015.3 |
| 20260504044501 | 56 | 113 | 0.0 | 1.0 | 0.00 | 0.00 | 0.00 | 73 | 1015.3 |
| 20260504043004 | 57 | 147 | 0.0 | 1.0 | 0.00 | 0.00 | 0.00 | 73 | 1015.2 |
| 20260504041500 | 57 | 168 | 0.0 | 2.0 | 0.00 | 0.00 | 0.00 | 73 | 1015.1 |
| 20260504040003 | 58 | 39 | 0.0 | 3.0 | 0.00 | 0.00 | 0.00 | 72 | 1014.9 |
| 20260504034502 | 58 | 136 | 0.0 | 2.0 | 0.00 | 0.00 | 0.00 | 72 | 1014.6 |
| 20260504033003 | 58 | 121 | 0.0 | 2.0 | 0.00 | 0.00 | 0.00 | 71 | 1014.4 |
| 20260504031600 | 59 | 145 | 0.0 | 3.0 | 0.00 | 0.00 | 0.00 | 72 | 1014.3 |
| 20260504031501 | 59 | 145 | 0.0 | 3.0 | 0.00 | 0.00 | 0.00 | 71 | 1014.2 |
| 20260504030002 | 59 | 128 | 0.0 | 1.0 | 0.00 | 0.00 | 0.00 | 72 | 1013.9 |
| 20260504024502 | 59 | 183 | 0.0 | 1.0 | 0.00 | 0.00 | 0.00 | 73 | 1013.9 |
| 20260504023002 | 60 | 183 | 0.0 | 0.0 | 0.00 | 0.00 | 0.00 | 73 | 1013.6 |
| 20260504021500 | 60 | 183 | 0.0 | 1.0 | 0.00 | 0.00 | 0.00 | 72 | 1013.6 |
| 20260504020002 | 60 | 207 | 0.0 | 2.0 | 0.00 | 0.00 | 0.00 | 70 | 1013.6 |
| 20260504014559 | 60 | 103 | 0.0 | 2.0 | 0.00 | 0.00 | 0.00 | 71 | 1013.4 |
| 20260504013119 | 60 | 120 | 0.0 | 1.0 | 0.00 | 0.00 | 0.00 | 71 | 1013.4 |
| 20260504011603 | 60 | 106 | 0.0 | 2.0 | 0.00 | 0.00 | 0.00 | 71 | 1013.4 |
| 20260504010106 | 60 | 181 | 0.0 | 2.0 | 0.00 | 0.00 | 0.00 | 72 | 1013.6 |
| 20260504004610 | 59 | 123 | 1.0 | 3.0 | 0.00 | 0.00 | 0.00 | 73 | 1013.6 |
| 20260504003100 | 59 | 181 | 0.0 | 2.0 | 0.00 | 0.00 | 0.00 | 73 | 1013.3 |
| 20260504003000 | 59 | 179 | 0.0 | 2.0 | 0.00 | 0.00 | 0.00 | 73 | 1013.4 |
| 20260504001608 | 59 | 184 | 0.0 | 2.0 | 0.00 | 0.00 | 0.00 | 73 | 1013.1 |
| 20260504000132 | 59 | 209 | 0.0 | 2.0 | 0.00 | 0.00 | 0.00 | 73 | 1013.3 |
| 20260504000002 | 59 | 210 | 0.0 | 2.0 | 0.00 | 0.00 | 0.00 | 73 | 1013.3 |
| 20260503234503 | 59 | 168 | 0.0 | 2.0 | 0.00 | 0.00 | 0.00 | 73 | 1013.7 |
| 20260503233000 | 59 | 224 | 0.0 | 2.0 | 0.00 | 0.00 | 0.00 | 72 | 1013.9 |
| 20260503231502 | 59 | 48 | 0.0 | 1.0 | 0.00 | 0.00 | 0.00 | 72 | 1013.9 |
| 20260503230002 | 59 | 60 | 0.0 | 2.0 | 0.00 | 0.00 | 0.00 | 73 | 1013.9 |